TimeMST,TemperatureF,Dew PointF,Humidity,Sea Level PressureIn,VisibilityMPH,Wind Direction,Wind SpeedMPH,Gust SpeedMPH,PrecipitationIn,Events,Conditions,WindDirDegrees,DateUTC
12:15 AM,24.8,21.2,86,30.20,10.0,East,6.9,-,N/A,,Clear,100,2012-11-30 07:15:00
12:35 AM,26.6,21.2,80,30.20,10.0,East,4.6,-,N/A,,Clear,90,2012-11-30 07:35:00
12:55 AM,26.6,21.2,80,30.19,10.0,East,3.5,-,N/A,,Clear,80,2012-11-30 07:55:00
1:15 AM,26.6,21.2,80,30.19,10.0,Calm,Calm,-,N/A,,Clear,0,2012-11-30 08:15:00
1:35 AM,26.6,21.2,80,30.19,10.0,Calm,Calm,-,N/A,,Clear,0,2012-11-30 08:35:00
2:15 AM,24.8,21.2,86,30.20,10.0,Calm,Calm,-,N/A,,Clear,0,2012-11-30 09:15:00
2:35 AM,24.8,21.2,86,30.20,10.0,ESE,3.5,-,N/A,,Partly Cloudy,120,2012-11-30 09:35:00
2:55 AM,26.6,23.0,86,30.20,10.0,ESE,3.5,-,N/A,,Mostly Cloudy,120,2012-11-30 09:55:00
3:15 AM,24.8,21.2,86,30.19,10.0,East,6.9,-,N/A,,Overcast,90,2012-11-30 10:15:00
4:35 AM,26.6,23.0,86,30.17,10.0,Calm,Calm,-,N/A,,Overcast,0,2012-11-30 11:35:00
4:55 AM,26.6,23.0,86,30.17,10.0,SE,3.5,-,N/A,,Overcast,140,2012-11-30 11:55:00
5:15 AM,26.6,24.8,93,30.16,10.0,ESE,3.5,-,N/A,,Overcast,110,2012-11-30 12:15:00
5:55 AM,24.8,23.0,93,30.15,10.0,ESE,3.5,-,N/A,,Partly Cloudy,120,2012-11-30 12:55:00
6:15 AM,24.8,21.2,86,30.16,10.0,Calm,Calm,-,N/A,,Clear,0,2012-11-30 13:15:00
6:35 AM,26.6,23.0,86,30.16,10.0,Calm,Calm,-,N/A,,Clear,0,2012-11-30 13:35:00
6:50 AM,24.8,21.2,86,30.16,10.0,Calm,Calm,-,N/A,,Scattered Clouds,0,2012-11-30 13:50:00
7:50 AM,24.8,21.2,86,30.15,10.0,Calm,Calm,-,N/A,,Scattered Clouds,0,2012-11-30 14:50:00
8:50 AM,28.4,24.8,86,30.16,10.0,Calm,Calm,-,N/A,,Mostly Cloudy,0,2012-11-30 15:50:00
9:50 AM,33.8,24.8,70,30.14,10.0,Calm,Calm,-,N/A,,Mostly Cloudy,0,2012-11-30 16:50:00
10:52 AM,39.2,24.8,56,30.11,10.0,Calm,Calm,-,N/A,,Mostly Cloudy,0,2012-11-30 17:52:00
11:50 AM,44.6,24.8,46,30.07,10.0,Calm,Calm,-,N/A,,Mostly Cloudy,0,2012-11-30 18:50:00
12:50 PM,51.8,26.6,38,30.02,10.0,West,12.7,-,N/A,,Mostly Cloudy,280,2012-11-30 19:50:00
1:51 PM,55.4,24.8,31,30.01,10.0,SW,20.7,25.3,N/A,,Mostly Cloudy,220,2012-11-30 20:51:00
2:54 PM,53.6,24.8,33,30.00,10.0,SW,15.0,-,N/A,,Mostly Cloudy,230,2012-11-30 21:54:00
3:50 PM,51.8,24.8,35,30.00,10.0,West,8.1,-,N/A,,Mostly Cloudy,270,2012-11-30 22:50:00
4:50 PM,46.4,26.6,46,30.01,10.0,SE,3.5,-,N/A,,Mostly Cloudy,130,2012-11-30 23:50:00
5:50 PM,42.8,24.8,49,30.02,10.0,SSE,4.6,-,N/A,,Scattered Clouds,160,2012-12-01 00:50:00
6:50 PM,42.8,24.8,49,30.02,10.0,Calm,Calm,-,N/A,,Scattered Clouds,0,2012-12-01 01:50:00
8:50 PM,37.4,26.6,65,30.01,10.0,ENE,9.2,-,N/A,,Scattered Clouds,70,2012-12-01 03:50:00
10:50 PM,35.6,26.6,70,30.03,10.0,ENE,5.8,-,N/A,,Partly Cloudy,70,2012-12-01 05:50:00
11:15 PM,37.4,26.6,65,30.03,10.0,ENE,6.9,-,N/A,,Mostly Cloudy,70,2012-12-01 06:15:00
11:35 PM,37.4,26.6,65,30.04,10.0,SSE,4.6,-,N/A,,Mostly Cloudy,150,2012-12-01 06:35:00
11:55 PM,39.2,26.6,61,30.03,10.0,WSW,5.8,-,N/A,,Mostly Cloudy,240,2012-12-01 06:55:00